If you wish to contribute or participate in the discussions about articles you are invited to join SKYbrary as a registered user

 Actions

Biarritz-Bayonne/Anglet

From SKYbrary Wiki

LFBZ
Airport
ICAO: LFBZ
Summary
Name Biarritz-Bayonne/Anglet
Region Europe
Territory France FR.gif
Location Biarritz-Bayonne/Anglet, Aquitaine
Serving
Coordinates 43° 28' 6.05" N, 1° 31' 22.83" W
Runways
Designator Length Width Surface ROPS
9/27 2250 m7,381.89 ft
45 m147.638 ft
ASP yes/yes


METAR
Observation LFBZ 220400Z AUTO 17009KT 130V230 CAVOK 12/05 Q1000 NOSIG
Station Biarritz
Date/Time 22 November 2019 04:00:00
Wind direction 170°
Wind speed 09 kts
Lowest cloud amount clouds and visibility OK
Temperature 12°C
Dew point 5°C
Humidity 62%
QNH 1000 hPa
Weather condition n/a

WX
Tag(s) Fog

Biarritz-Bayonne/Anglet Airport

ICAO: LFBZ IATA: BIQ

Description

International airport serving Biarritz.

Climatology

Temperate Marine climate/Oceanic climate (Köppen climate classification Cfb). Moderately cool summer and comparatively warm winter with a temperature range of only 14°C57.2 °F
287.15 K
516.87 °R
. Prevailing south-westerly winds from the Atlantic Ocean.

Maps

Terrain

Loading map...

Airport Layout

Loading map...



Accidents & Serious Incidents at or in vicinity of LFBZ

None on SKYbrary